owner,sensor,date,latitude,longitude,vertical_datum,wind_speed,wind_to_direction,wind_speed_of_gust,qcFlag 
LOOP,urn:ioos:station:wmo:lopl1:1,2013-10-01T00:08:00Z,28.8850,-90.0250,10.0,5.3,124.0,6.4,'11111222,11111222,11111222' 
LOOP,urn:ioos:station:wmo:lopl1:1,2013-10-01T00:23:00Z,28.8850,-90.0250,10.0,5.4,120.0,6.1,'11111222,11111222,11111222' 
LOOP,urn:ioos:station:wmo:lopl1:1,2013-10-01T00:38:00Z,28.8850,-90.0250,10.0,6.3,129.0,7.4,'11111222,11111222,11111222' 
LOOP,urn:ioos:station:wmo:lopl1:1,2013-10-01T00:53:00Z,28.8850,-90.0250,10.0,6.6,132.0,7.4,'11111222,11111222,11111222' 
LOOP,urn:ioos:station:wmo:lopl1:1,2013-10-01T01:08:00Z,28.8850,-90.0250,10.0,7.6,129.0,8.7,'11111222,11111222,11111222' 
LOOP,urn:ioos:station:wmo:lopl1:1,2013-10-01T01:23:00Z,28.8850,-90.0250,10.0,7.4,124.0,8.1,'11111222,11111222,11111222' 
LOOP,urn:ioos:station:wmo:lopl1:1,2013-10-01T01:38:00Z,28.8850,-90.0250,10.0,7.0,119.0,7.7,'11111222,11111222,11111222' 
LOOP,urn:ioos:station:wmo:lopl1:1,2013-10-01T01:53:00Z,28.8850,-90.0250,10.0,6.8,123.0,8.2,'11111222,11111222,11111222' 
LOOP,urn:ioos:station:wmo:lopl1:1,2013-10-01T02:08:00Z,28.8850,-90.0250,10.0,7.5,119.0,8.2,'11111222,11111222,11111222' 
LOOP,urn:ioos:station:wmo:lopl1:1,2013-10-01T02:23:00Z,28.8850,-90.0250,10.0,7.6,131.0,8.8,'11111222,11111222,11111222' 
LOOP,urn:ioos:station:wmo:lopl1:1,2013-10-01T02:38:00Z,28.8850,-90.0250,10.0,8.0,115.0,9.1,'11111222,11111222,11111222' 
LOOP,urn:ioos:station:wmo:lopl1:1,2013-10-01T02:53:00Z,28.8850,-90.0250,10.0,8.0,115.0,8.8,'11111222,11111222,11111222' 
LOOP,urn:ioos:station:wmo:lopl1:1,2013-10-01T03:08:00Z,28.8850,-90.0250,10.0,8.7,113.0,9.6,'11111222,11111222,11111222' 
LOOP,urn:ioos:station:wmo:lopl1:1,2013-10-01T03:23:00Z,28.8850,-90.0250,10.0,8.3,123.0,9.7,'11111222,11111222,11111222' 
LOOP,urn:ioos:station:wmo:lopl1:1,2013-10-01T03:43:00Z,28.8850,-90.0250,10.0,8.1,122.0,9.4,'11111222,11111222,11111222' 
LOOP,urn:ioos:station:wmo:lopl1:1,2013-10-01T03:58:00Z,28.8850,-90.0250,10.0,8.5,123.0,9.3,'11111222,11111222,11111222' 
LOOP,urn:ioos:station:wmo:lopl1:1,2013-10-01T04:13:00Z,28.8850,-90.0250,10.0,8.4,123.0,9.2,'11111222,11111222,11111222' 
LOOP,urn:ioos:station:wmo:lopl1:1,2013-10-01T04:28:00Z,28.8850,-90.0250,10.0,7.8,111.0,8.7,'11111222,11111222,11111222' 
LOOP,urn:ioos:station:wmo:lopl1:1,2013-10-01T04:43:00Z,28.8850,-90.0250,10.0,7.8,124.0,9.7,'11111222,11111222,11111222' 
LOOP,urn:ioos:station:wmo:lopl1:1,2013-10-01T04:58:00Z,28.8850,-90.0250,10.0,8.4,126.0,9.5,'11111222,11111222,11111222' 
LOOP,urn:ioos:station:wmo:lopl1:1,2013-10-01T05:13:00Z,28.8850,-90.0250,10.0,6.6,120.0,7.6,'11111222,11111222,11111222' 
LOOP,urn:ioos:station:wmo:lopl1:1,2013-10-01T05:28:00Z,28.8850,-90.0250,10.0,9.4,111.0,10.2,'11111222,11111222,11111222' 
LOOP,urn:ioos:station:wmo:lopl1:1,2013-10-01T05:43:00Z,28.8850,-90.0250,10.0,6.6,115.0,7.5,'11111222,11111222,11111222' 
LOOP,urn:ioos:station:wmo:lopl1:1,2013-10-01T05:58:00Z,28.8850,-90.0250,10.0,6.3,136.0,7.9,'11111222,11111222,11111222' 
LOOP,urn:ioos:station:wmo:lopl1:1,2013-10-01T06:13:00Z,28.8850,-90.0250,10.0,7.6,133.0,8.5,'11111222,11111222,11111222' 
LOOP,urn:ioos:station:wmo:lopl1:1,2013-10-01T06:28:00Z,28.8850,-90.0250,10.0,7.6,132.0,8.4,'11111222,11111222,11111222' 
LOOP,urn:ioos:station:wmo:lopl1:1,2013-10-01T06:43:00Z,28.8850,-90.0250,10.0,7.2,140.0,8.0,'11111222,11111222,11111222' 
LOOP,urn:ioos:station:wmo:lopl1:1,2013-10-01T06:58:00Z,28.8850,-90.0250,10.0,6.7,144.0,8.1,'11111222,11111222,11111222' 
LOOP,urn:ioos:station:wmo:lopl1:1,2013-10-01T07:13:00Z,28.8850,-90.0250,10.0,7.2,130.0,7.7,'11111222,11111222,11111222' 
LOOP,urn:ioos:station:wmo:lopl1:1,2013-10-01T07:28:00Z,28.8850,-90.0250,10.0,7.3,131.0,8.0,'11111222,11111222,11111222' 
LOOP,urn:ioos:station:wmo:lopl1:1,2013-10-01T07:43:00Z,28.8850,-90.0250,10.0,7.8,132.0,8.5,'11111222,11111222,11111222' 
LOOP,urn:ioos:station:wmo:lopl1:1,2013-10-01T07:58:00Z,28.8850,-90.0250,10.0,7.1,133.0,8.5,'11111222,11111222,11111222' 
LOOP,urn:ioos:station:wmo:lopl1:1,2013-10-01T08:13:00Z,28.8850,-90.0250,10.0,8.0,143.0,8.8,'11111222,11111222,11111222' 
LOOP,urn:ioos:station:wmo:lopl1:1,2013-10-01T08:28:00Z,28.8850,-90.0250,10.0,7.4,136.0,8.6,'11111222,11111222,11111222' 
LOOP,urn:ioos:station:wmo:lopl1:1,2013-10-01T08:43:00Z,28.8850,-90.0250,10.0,8.1,142.0,8.8,'11111222,11111222,11111222' 
LOOP,urn:ioos:station:wmo:lopl1:1,2013-10-01T08:58:00Z,28.8850,-90.0250,10.0,8.3,122.0,9.5,'11111222,11111222,11111222' 
LOOP,urn:ioos:station:wmo:lopl1:1,2013-10-01T09:13:00Z,28.8850,-90.0250,10.0,8.4,138.0,9.3,'11111222,11111222,11111222' 
LOOP,urn:ioos:station:wmo:lopl1:1,2013-10-01T09:28:00Z,28.8850,-90.0250,10.0,7.8,134.0,9.2,'11111222,11111222,11111222' 
LOOP,urn:ioos:station:wmo:lopl1:1,2013-10-01T09:43:00Z,28.8850,-90.0250,10.0,6.7,138.0,7.7,'11111222,11111222,11111222' 
LOOP,urn:ioos:station:wmo:lopl1:1,2013-10-01T10:03:00Z,28.8850,-90.0250,10.0,7.5,132.0,8.5,'11111222,11111222,11111222' 
LOOP,urn:ioos:station:wmo:lopl1:1,2013-10-01T10:18:00Z,28.8850,-90.0250,10.0,6.8,146.0,8.1,'11111222,11111222,11111222' 
LOOP,urn:ioos:station:wmo:lopl1:1,2013-10-01T10:33:00Z,28.8850,-90.0250,10.0,8.2,131.0,8.9,'11111222,11111222,11111222' 
LOOP,urn:ioos:station:wmo:lopl1:1,2013-10-01T10:48:00Z,28.8850,-90.0250,10.0,7.9,137.0,8.6,'11111222,11111222,11111222' 
LOOP,urn:ioos:station:wmo:lopl1:1,2013-10-01T11:03:00Z,28.8850,-90.0250,10.0,7.0,126.0,7.7,'11111222,11111222,11111222' 
LOOP,urn:ioos:station:wmo:lopl1:1,2013-10-01T11:18:00Z,28.8850,-90.0250,10.0,6.6,130.0,7.6,'11111222,11111222,11111222' 
LOOP,urn:ioos:station:wmo:lopl1:1,2013-10-01T11:33:00Z,28.8850,-90.0250,10.0,6.3,123.0,7.0,'11111222,11111222,11111222' 
LOOP,urn:ioos:station:wmo:lopl1:1,2013-10-01T11:48:00Z,28.8850,-90.0250,10.0,6.6,128.0,7.5,'11111222,11111222,11111222' 
LOOP,urn:ioos:station:wmo:lopl1:1,2013-10-01T12:03:00Z,28.8850,-90.0250,10.0,6.1,144.0,6.8,'11111222,11111222,11111222' 
LOOP,urn:ioos:station:wmo:lopl1:1,2013-10-01T12:18:00Z,28.8850,-90.0250,10.0,5.3,137.0,6.0,'11111222,11111222,11111222' 
LOOP,urn:ioos:station:wmo:lopl1:1,2013-10-01T12:33:00Z,28.8850,-90.0250,10.0,5.8,133.0,6.5,'11111222,11111222,11111222' 
LOOP,urn:ioos:station:wmo:lopl1:1,2013-10-01T12:48:00Z,28.8850,-90.0250,10.0,5.8,134.0,6.9,'11111222,11111222,11111222' 
LOOP,urn:ioos:station:wmo:lopl1:1,2013-10-01T13:03:00Z,28.8850,-90.0250,10.0,6.2,133.0,7.0,'11111222,11111222,11111222' 
LOOP,urn:ioos:station:wmo:lopl1:1,2013-10-01T13:18:00Z,28.8850,-90.0250,10.0,6.0,128.0,6.8,'11111222,11111222,11111222' 
LOOP,urn:ioos:station:wmo:lopl1:1,2013-10-01T13:33:00Z,28.8850,-90.0250,10.0,6.2,132.0,6.9,'11111222,11111222,11111222' 
LOOP,urn:ioos:station:wmo:lopl1:1,2013-10-01T13:48:00Z,28.8850,-90.0250,10.0,7.2,118.0,7.9,'11111222,11111222,11111222' 
LOOP,urn:ioos:station:wmo:lopl1:1,2013-10-01T14:03:00Z,28.8850,-90.0250,10.0,7.0,111.0,7.8,'11111222,11111222,11111222' 
LOOP,urn:ioos:station:wmo:lopl1:1,2013-10-01T14:18:00Z,28.8850,-90.0250,10.0,7.2,114.0,8.2,'11111222,11111222,11111222' 
LOOP,urn:ioos:station:wmo:lopl1:1,2013-10-01T14:38:00Z,28.8850,-90.0250,10.0,6.7,110.0,7.4,'11111222,11111222,11111222' 
LOOP,urn:ioos:station:wmo:lopl1:1,2013-10-01T14:53:00Z,28.8850,-90.0250,10.0,5.8,112.0,6.8,'11111222,11111222,11111222' 
LOOP,urn:ioos:station:wmo:lopl1:1,2013-10-01T15:08:00Z,28.8850,-90.0250,10.0,5.2,108.0,5.9,'11111222,11111222,11111222' 
LOOP,urn:ioos:station:wmo:lopl1:1,2013-10-01T15:23:00Z,28.8850,-90.0250,10.0,5.3,104.0,6.3,'11111222,11111222,11111222' 
LOOP,urn:ioos:station:wmo:lopl1:1,2013-10-01T15:38:00Z,28.8850,-90.0250,10.0,5.7,107.0,6.6,'11111222,11111222,11111222' 
LOOP,urn:ioos:station:wmo:lopl1:1,2013-10-01T15:53:00Z,28.8850,-90.0250,10.0,5.6,95.0,6.6,'11111222,11111222,11111222' 
LOOP,urn:ioos:station:wmo:lopl1:1,2013-10-01T16:08:00Z,28.8850,-90.0250,10.0,5.9,88.0,6.7,'11111222,11111222,11111222' 
LOOP,urn:ioos:station:wmo:lopl1:1,2013-10-01T16:23:00Z,28.8850,-90.0250,10.0,5.2,107.0,6.0,'11111222,11111222,11111222' 
LOOP,urn:ioos:station:wmo:lopl1:1,2013-10-01T16:38:00Z,28.8850,-90.0250,10.0,5.4,97.0,6.3,'11111222,11111222,11111222' 
LOOP,urn:ioos:station:wmo:lopl1:1,2013-10-01T16:53:00Z,28.8850,-90.0250,10.0,5.4,95.0,6.4,'11111222,11111222,11111222' 
LOOP,urn:ioos:station:wmo:lopl1:1,2013-10-01T17:08:00Z,28.8850,-90.0250,10.0,6.2,112.0,6.8,'11111222,11111222,11111222' 
LOOP,urn:ioos:station:wmo:lopl1:1,2013-10-01T17:23:00Z,28.8850,-90.0250,10.0,6.5,112.0,7.1,'11111222,11111222,11111222' 
LOOP,urn:ioos:station:wmo:lopl1:1,2013-10-01T17:38:00Z,28.8850,-90.0250,10.0,7.2,107.0,8.1,'11111222,11111222,11111222' 
LOOP,urn:ioos:station:wmo:lopl1:1,2013-10-01T17:53:00Z,28.8850,-90.0250,10.0,7.3,103.0,8.2,'11111222,11111222,11111222' 
LOOP,urn:ioos:station:wmo:lopl1:1,2013-10-01T18:08:00Z,28.8850,-90.0250,10.0,6.1,99.0,7.7,'11111222,11111222,11111222' 
LOOP,urn:ioos:station:wmo:lopl1:1,2013-10-01T18:23:00Z,28.8850,-90.0250,10.0,5.8,101.0,6.7,'11111222,11111222,11111222' 
LOOP,urn:ioos:station:wmo:lopl1:1,2013-10-01T18:38:00Z,28.8850,-90.0250,10.0,8.2,137.0,10.1,'11111222,11111222,11111222' 
LOOP,urn:ioos:station:wmo:lopl1:1,2013-10-01T18:53:00Z,28.8850,-90.0250,10.0,7.8,116.0,8.9,'11111222,11111222,11111222' 
LOOP,urn:ioos:station:wmo:lopl1:1,2013-10-01T19:08:00Z,28.8850,-90.0250,10.0,7.1,113.0,7.2,'11111222,11111222,11111222' 
LOOP,urn:ioos:station:wmo:lopl1:1,2013-10-01T19:23:00Z,28.8850,-90.0250,10.0,7.2,104.0,8.1,'11111222,11111222,11111222' 
LOOP,urn:ioos:station:wmo:lopl1:1,2013-10-01T19:38:00Z,28.8850,-90.0250,10.0,11.3,130.0,12.5,'11111222,11111222,11111222' 
LOOP,urn:ioos:station:wmo:lopl1:1,2013-10-01T19:53:00Z,28.8850,-90.0250,10.0,8.0,137.0,9.7,'11111222,11111222,11111222' 
LOOP,urn:ioos:station:wmo:lopl1:1,2013-10-01T20:13:00Z,28.8850,-90.0250,10.0,8.6,128.0,10.0,'11111222,11111222,11111222' 
LOOP,urn:ioos:station:wmo:lopl1:1,2013-10-01T20:28:00Z,28.8850,-90.0250,10.0,7.3,129.0,8.7,'11111222,11111222,11111222' 
LOOP,urn:ioos:station:wmo:lopl1:1,2013-10-01T20:43:00Z,28.8850,-90.0250,10.0,6.6,129.0,7.3,'11111222,11111222,11111222' 
LOOP,urn:ioos:station:wmo:lopl1:1,2013-10-01T20:58:00Z,28.8850,-90.0250,10.0,6.1,124.0,6.8,'11111222,11111222,11111222' 
LOOP,urn:ioos:station:wmo:lopl1:1,2013-10-01T21:13:00Z,28.8850,-90.0250,10.0,5.1,126.0,5.9,'11111222,11111222,11111222' 
LOOP,urn:ioos:station:wmo:lopl1:1,2013-10-01T21:28:00Z,28.8850,-90.0250,10.0,5.3,101.0,5.9,'11111222,11111222,11111222' 
LOOP,urn:ioos:station:wmo:lopl1:1,2013-10-01T21:43:00Z,28.8850,-90.0250,10.0,5.6,109.0,6.3,'11111222,11111222,11111222' 
LOOP,urn:ioos:station:wmo:lopl1:1,2013-10-01T21:58:00Z,28.8850,-90.0250,10.0,5.5,99.0,6.5,'11111222,11111222,11111222' 
LOOP,urn:ioos:station:wmo:lopl1:1,2013-10-01T22:13:00Z,28.8850,-90.0250,10.0,6.0,95.0,6.6,'11111222,11111222,11111222' 
LOOP,urn:ioos:station:wmo:lopl1:1,2013-10-01T22:28:00Z,28.8850,-90.0250,10.0,5.4,90.0,6.2,'11111222,11111222,11111222' 
LOOP,urn:ioos:station:wmo:lopl1:1,2013-10-01T22:43:00Z,28.8850,-90.0250,10.0,5.3,93.0,5.8,'11111222,11111222,11111222' 
LOOP,urn:ioos:station:wmo:lopl1:1,2013-10-01T22:58:00Z,28.8850,-90.0250,10.0,5.1,85.0,5.7,'11111222,11111222,11111222' 
LOOP,urn:ioos:station:wmo:lopl1:1,2013-10-01T23:13:00Z,28.8850,-90.0250,10.0,5.3,90.0,6.1,'11111222,11111222,11111222' 
LOOP,urn:ioos:station:wmo:lopl1:1,2013-10-01T23:28:00Z,28.8850,-90.0250,10.0,5.3,98.0,6.0,'11111222,11111222,11111222' 
LOOP,urn:ioos:station:wmo:lopl1:1,2013-10-01T23:43:00Z,28.8850,-90.0250,10.0,5.2,88.0,6.3,'11111222,11111222,11111222' 
LOOP,urn:ioos:station:wmo:lopl1:1,2013-10-01T23:58:00Z,28.8850,-90.0250,10.0,5.6,81.0,6.6,'11111222,11111222,11111222' 
LOOP,urn:ioos:station:wmo:lopl1:1,2013-10-02T00:13:00Z,28.8850,-90.0250,10.0,6.9,88.0,7.9,'11111222,11111222,11111222' 
LOOP,urn:ioos:station:wmo:lopl1:1,2013-10-02T00:28:00Z,28.8850,-90.0250,10.0,7.2,99.0,7.9,'11111222,11111222,11111222' 
LOOP,urn:ioos:station:wmo:lopl1:1,2013-10-02T00:43:00Z,28.8850,-90.0250,10.0,8.0,95.0,9.2,'11111222,11111222,11111222' 
LOOP,urn:ioos:station:wmo:lopl1:1,2013-10-02T00:58:00Z,28.8850,-90.0250,10.0,7.1,97.0,8.2,'11111222,11111222,11111222' 
LOOP,urn:ioos:station:wmo:lopl1:1,2013-10-02T01:13:00Z,28.8850,-90.0250,10.0,7.4,97.0,8.2,'11111222,11111222,11111222' 
LOOP,urn:ioos:station:wmo:lopl1:1,2013-10-02T01:28:00Z,28.8850,-90.0250,10.0,7.3,100.0,8.4,'11111222,11111222,11111222' 
LOOP,urn:ioos:station:wmo:lopl1:1,2013-10-02T01:48:00Z,28.8850,-90.0250,10.0,7.8,86.0,8.7,'11111222,11111222,11111222' 
LOOP,urn:ioos:station:wmo:lopl1:1,2013-10-02T02:03:00Z,28.8850,-90.0250,10.0,7.5,90.0,8.3,'11111222,11111222,11111222' 
LOOP,urn:ioos:station:wmo:lopl1:1,2013-10-02T02:18:00Z,28.8850,-90.0250,10.0,7.6,95.0,8.8,'11111222,11111222,11111222' 
LOOP,urn:ioos:station:wmo:lopl1:1,2013-10-02T02:33:00Z,28.8850,-90.0250,10.0,7.7,92.0,8.3,'11111222,11111222,11111222' 
LOOP,urn:ioos:station:wmo:lopl1:1,2013-10-02T02:48:00Z,28.8850,-90.0250,10.0,7.4,96.0,8.2,'11111222,11111222,11111222' 
LOOP,urn:ioos:station:wmo:lopl1:1,2013-10-02T03:03:00Z,28.8850,-90.0250,10.0,6.8,101.0,7.6,'11111222,11111222,11111222' 
LOOP,urn:ioos:station:wmo:lopl1:1,2013-10-02T03:18:00Z,28.8850,-90.0250,10.0,7.2,101.0,9.0,'11111222,11111222,11111222' 
LOOP,urn:ioos:station:wmo:lopl1:1,2013-10-02T03:33:00Z,28.8850,-90.0250,10.0,7.6,97.0,8.3,'11111222,11111222,11111222' 
LOOP,urn:ioos:station:wmo:lopl1:1,2013-10-02T03:48:00Z,28.8850,-90.0250,10.0,6.8,101.0,7.8,'11111222,11111222,11111222' 
LOOP,urn:ioos:station:wmo:lopl1:1,2013-10-02T04:03:00Z,28.8850,-90.0250,10.0,6.8,99.0,7.7,'11111222,11111222,11111222' 
LOOP,urn:ioos:station:wmo:lopl1:1,2013-10-02T04:18:00Z,28.8850,-90.0250,10.0,7.2,98.0,7.9,'11111222,11111222,11111222' 
LOOP,urn:ioos:station:wmo:lopl1:1,2013-10-02T04:33:00Z,28.8850,-90.0250,10.0,7.9,116.0,8.9,'11111222,11111222,11111222' 
LOOP,urn:ioos:station:wmo:lopl1:1,2013-10-02T04:48:00Z,28.8850,-90.0250,10.0,6.7,96.0,7.6,'11111222,11111222,11111222' 
LOOP,urn:ioos:station:wmo:lopl1:1,2013-10-02T05:03:00Z,28.8850,-90.0250,10.0,7.1,105.0,8.5,'11111222,11111222,11111222' 
LOOP,urn:ioos:station:wmo:lopl1:1,2013-10-02T05:18:00Z,28.8850,-90.0250,10.0,8.1,90.0,9.7,'11111222,11111222,11111222' 
LOOP,urn:ioos:station:wmo:lopl1:1,2013-10-02T05:33:00Z,28.8850,-90.0250,10.0,8.1,96.0,9.3,'11111222,11111222,11111222' 
LOOP,urn:ioos:station:wmo:lopl1:1,2013-10-02T05:48:00Z,28.8850,-90.0250,10.0,7.3,89.0,8.0,'11111222,11111222,11111222' 
LOOP,urn:ioos:station:wmo:lopl1:1,2013-10-02T06:03:00Z,28.8850,-90.0250,10.0,7.0,85.0,7.7,'11111222,11111222,11111222' 
LOOP,urn:ioos:station:wmo:lopl1:1,2013-10-02T06:18:00Z,28.8850,-90.0250,10.0,8.2,96.0,9.2,'11111222,11111222,11111222' 
LOOP,urn:ioos:station:wmo:lopl1:1,2013-10-02T06:33:00Z,28.8850,-90.0250,10.0,6.6,97.0,7.5,'11111222,11111222,11111222' 
LOOP,urn:ioos:station:wmo:lopl1:1,2013-10-02T06:48:00Z,28.8850,-90.0250,10.0,10.6,108.0,11.5,'11111222,11111222,11111222' 
LOOP,urn:ioos:station:wmo:lopl1:1,2013-10-02T07:03:00Z,28.8850,-90.0250,10.0,5.8,94.0,7.0,'11111222,11111222,11111222' 
LOOP,urn:ioos:station:wmo:lopl1:1,2013-10-02T07:18:00Z,28.8850,-90.0250,10.0,9.5,122.0,10.9,'11111222,11111222,11111222' 
LOOP,urn:ioos:station:wmo:lopl1:1,2013-10-02T07:33:00Z,28.8850,-90.0250,10.0,6.2,106.0,7.3,'11111222,11111222,11111222' 
LOOP,urn:ioos:station:wmo:lopl1:1,2013-10-02T07:48:00Z,28.8850,-90.0250,10.0,7.4,106.0,8.1,'11111222,11111222,11111222' 
LOOP,urn:ioos:station:wmo:lopl1:1,2013-10-02T08:08:00Z,28.8850,-90.0250,10.0,6.9,109.0,7.8,'11111222,11111222,11111222' 
LOOP,urn:ioos:station:wmo:lopl1:1,2013-10-02T08:23:00Z,28.8850,-90.0250,10.0,6.7,101.0,7.4,'11111222,11111222,11111222' 
LOOP,urn:ioos:station:wmo:lopl1:1,2013-10-02T08:38:00Z,28.8850,-90.0250,10.0,5.2,101.0,6.0,'11111222,11111222,11111222' 
LOOP,urn:ioos:station:wmo:lopl1:1,2013-10-02T08:53:00Z,28.8850,-90.0250,10.0,6.3,111.0,7.5,'11111222,11111222,11111222' 
LOOP,urn:ioos:station:wmo:lopl1:1,2013-10-02T09:08:00Z,28.8850,-90.0250,10.0,6.3,120.0,7.1,'11111222,11111222,11111222' 
LOOP,urn:ioos:station:wmo:lopl1:1,2013-10-02T09:23:00Z,28.8850,-90.0250,10.0,7.3,113.0,7.9,'11111222,11111222,11111222' 
LOOP,urn:ioos:station:wmo:lopl1:1,2013-10-02T09:38:00Z,28.8850,-90.0250,10.0,7.0,114.0,8.2,'11111222,11111222,11111222' 
LOOP,urn:ioos:station:wmo:lopl1:1,2013-10-02T09:53:00Z,28.8850,-90.0250,10.0,7.5,123.0,8.3,'11111222,11111222,11111222' 
LOOP,urn:ioos:station:wmo:lopl1:1,2013-10-02T10:08:00Z,28.8850,-90.0250,10.0,6.8,119.0,7.5,'11111222,11111222,11111222' 
LOOP,urn:ioos:station:wmo:lopl1:1,2013-10-02T10:23:00Z,28.8850,-90.0250,10.0,7.7,113.0,8.6,'11111222,11111222,11111222' 
LOOP,urn:ioos:station:wmo:lopl1:1,2013-10-02T10:38:00Z,28.8850,-90.0250,10.0,7.9,139.0,8.9,'11111222,11111222,11111222' 
LOOP,urn:ioos:station:wmo:lopl1:1,2013-10-02T10:53:00Z,28.8850,-90.0250,10.0,6.3,130.0,7.1,'11111222,11111222,11111222' 
LOOP,urn:ioos:station:wmo:lopl1:1,2013-10-02T11:08:00Z,28.8850,-90.0250,10.0,5.7,112.0,6.5,'11111222,11111222,11111222' 
LOOP,urn:ioos:station:wmo:lopl1:1,2013-10-02T11:23:00Z,28.8850,-90.0250,10.0,5.8,127.0,6.2,'11111222,11111222,11111222' 
LOOP,urn:ioos:station:wmo:lopl1:1,2013-10-02T11:38:00Z,28.8850,-90.0250,10.0,5.2,141.0,6.3,'11111222,11111222,11111222' 
LOOP,urn:ioos:station:wmo:lopl1:1,2013-10-02T11:53:00Z,28.8850,-90.0250,10.0,4.9,138.0,5.8,'11111222,11111222,11111222' 
LOOP,urn:ioos:station:wmo:lopl1:1,2013-10-02T12:08:00Z,28.8850,-90.0250,10.0,8.6,163.0,12.0,'11111222,11111222,11111222' 
LOOP,urn:ioos:station:wmo:lopl1:1,2013-10-02T12:23:00Z,28.8850,-90.0250,10.0,7.3,193.0,10.6,'11111222,11111222,11111222' 
LOOP,urn:ioos:station:wmo:lopl1:1,2013-10-02T12:43:00Z,28.8850,-90.0250,10.0,3.4,113.0,4.2,'11111222,11111222,11111222' 
LOOP,urn:ioos:station:wmo:lopl1:1,2013-10-02T12:58:00Z,28.8850,-90.0250,10.0,2.4,60.0,3.2,'11111222,11111222,11111222' 
LOOP,urn:ioos:station:wmo:lopl1:1,2013-10-02T13:13:00Z,28.8850,-90.0250,10.0,1.6,5.0,2.9,'11111222,11111222,11111222' 
LOOP,urn:ioos:station:wmo:lopl1:1,2013-10-02T13:28:00Z,28.8850,-90.0250,10.0,0.4,18.0,0.8,'11111222,11111222,11111222' 
LOOP,urn:ioos:station:wmo:lopl1:1,2013-10-02T13:43:00Z,28.8850,-90.0250,10.0,1.7,2.0,3.2,'11111222,11111222,11111222' 
LOOP,urn:ioos:station:wmo:lopl1:1,2013-10-02T13:58:00Z,28.8850,-90.0250,10.0,1.7,6.0,2.9,'11111222,11111222,11111222' 
LOOP,urn:ioos:station:wmo:lopl1:1,2013-10-02T14:13:00Z,28.8850,-90.0250,10.0,1.5,337.0,2.3,'11111222,11111222,11111222' 
LOOP,urn:ioos:station:wmo:lopl1:1,2013-10-02T14:28:00Z,28.8850,-90.0250,10.0,1.2,318.0,2.6,'11111222,11111222,11111222' 
LOOP,urn:ioos:station:wmo:lopl1:1,2013-10-02T14:43:00Z,28.8850,-90.0250,10.0,5.2,223.0,10.0,'11111222,11111222,11111222' 
LOOP,urn:ioos:station:wmo:lopl1:1,2013-10-02T14:58:00Z,28.8850,-90.0250,10.0,4.0,60.0,6.0,'11111222,11111222,11111222' 
LOOP,urn:ioos:station:wmo:lopl1:1,2013-10-02T15:13:00Z,28.8850,-90.0250,10.0,3.0,46.0,4.6,'11111222,11111222,11111222' 
LOOP,urn:ioos:station:wmo:lopl1:1,2013-10-02T15:28:00Z,28.8850,-90.0250,10.0,4.1,346.0,7.2,'11111222,11111222,11111222' 
LOOP,urn:ioos:station:wmo:lopl1:1,2013-10-02T15:43:00Z,28.8850,-90.0250,10.0,4.1,0.0,6.2,'11111222,11111222,11111222' 
LOOP,urn:ioos:station:wmo:lopl1:1,2013-10-02T15:58:00Z,28.8850,-90.0250,10.0,5.1,359.0,6.5,'11111222,11111222,11111222' 
LOOP,urn:ioos:station:wmo:lopl1:1,2013-10-02T16:13:00Z,28.8850,-90.0250,10.0,3.4,3.0,5.1,'11111222,11111222,11111222' 
LOOP,urn:ioos:station:wmo:lopl1:1,2013-10-02T16:28:00Z,28.8850,-90.0250,10.0,3.5,1.0,5.3,'11111222,11111222,11111222' 
LOOP,urn:ioos:station:wmo:lopl1:1,2013-10-02T16:43:00Z,28.8850,-90.0250,10.0,1.6,353.0,2.6,'11111222,11111222,11111222' 
LOOP,urn:ioos:station:wmo:lopl1:1,2013-10-02T16:58:00Z,28.8850,-90.0250,10.0,1.0,32.0,2.1,'11111222,11111222,11111222' 
LOOP,urn:ioos:station:wmo:lopl1:1,2013-10-02T17:18:00Z,28.8850,-90.0250,10.0,1.6,70.0,2.0,'11111222,11111222,11111222' 
LOOP,urn:ioos:station:wmo:lopl1:1,2013-10-02T17:33:00Z,28.8850,-90.0250,10.0,2.4,77.0,2.7,'11111222,11111222,11111222' 
LOOP,urn:ioos:station:wmo:lopl1:1,2013-10-02T17:48:00Z,28.8850,-90.0250,10.0,4.6,96.0,7.6,'11111222,11111222,11111222' 
LOOP,urn:ioos:station:wmo:lopl1:1,2013-10-02T18:03:00Z,28.8850,-90.0250,10.0,8.9,122.0,9.8,'11111222,11111222,11111222' 
LOOP,urn:ioos:station:wmo:lopl1:1,2013-10-02T18:18:00Z,28.8850,-90.0250,10.0,5.8,114.0,6.8,'11111222,11111222,11111222' 
LOOP,urn:ioos:station:wmo:lopl1:1,2013-10-02T18:33:00Z,28.8850,-90.0250,10.0,5.0,106.0,5.6,'11111222,11111222,11111222' 
LOOP,urn:ioos:station:wmo:lopl1:1,2013-10-02T18:48:00Z,28.8850,-90.0250,10.0,4.5,98.0,5.7,'11111222,11111222,11111222' 
LOOP,urn:ioos:station:wmo:lopl1:1,2013-10-02T19:03:00Z,28.8850,-90.0250,10.0,5.9,95.0,6.6,'11111222,11111222,11111222' 
LOOP,urn:ioos:station:wmo:lopl1:1,2013-10-02T19:18:00Z,28.8850,-90.0250,10.0,6.2,77.0,7.1,'11111222,11111222,11111222' 
LOOP,urn:ioos:station:wmo:lopl1:1,2013-10-02T19:33:00Z,28.8850,-90.0250,10.0,5.5,66.0,6.7,'11111222,11111222,11111222' 
LOOP,urn:ioos:station:wmo:lopl1:1,2013-10-02T19:48:00Z,28.8850,-90.0250,10.0,4.9,97.0,6.0,'11111222,11111222,11111222' 
LOOP,urn:ioos:station:wmo:lopl1:1,2013-10-02T20:03:00Z,28.8850,-90.0250,10.0,4.5,94.0,5.3,'11111222,11111222,11111222' 
LOOP,urn:ioos:station:wmo:lopl1:1,2013-10-02T20:18:00Z,28.8850,-90.0250,10.0,4.5,78.0,5.2,'11111222,11111222,11111222' 
LOOP,urn:ioos:station:wmo:lopl1:1,2013-10-02T20:33:00Z,28.8850,-90.0250,10.0,3.9,84.0,4.8,'11111222,11111222,11111222' 
LOOP,urn:ioos:station:wmo:lopl1:1,2013-10-02T20:48:00Z,28.8850,-90.0250,10.0,4.4,88.0,5.3,'11111222,11111222,11111222' 
LOOP,urn:ioos:station:wmo:lopl1:1,2013-10-02T21:03:00Z,28.8850,-90.0250,10.0,4.1,105.0,4.7,'11111222,11111222,11111222' 
LOOP,urn:ioos:station:wmo:lopl1:1,2013-10-02T21:18:00Z,28.8850,-90.0250,10.0,4.0,93.0,4.7,'11111222,11111222,11111222' 
LOOP,urn:ioos:station:wmo:lopl1:1,2013-10-02T21:33:00Z,28.8850,-90.0250,10.0,3.8,99.0,4.2,'11111222,11111222,11111222' 
LOOP,urn:ioos:station:wmo:lopl1:1,2013-10-02T21:48:00Z,28.8850,-90.0250,10.0,3.9,115.0,4.6,'11111222,11111222,11111222' 
LOOP,urn:ioos:station:wmo:lopl1:1,2013-10-02T22:03:00Z,28.8850,-90.0250,10.0,3.9,111.0,3.9,'11111222,11111222,11111222' 
LOOP,urn:ioos:station:wmo:lopl1:1,2013-10-02T22:18:00Z,28.8850,-90.0250,10.0,4.2,113.0,5.1,'11111222,11111222,11111222' 
LOOP,urn:ioos:station:wmo:lopl1:1,2013-10-02T22:33:00Z,28.8850,-90.0250,10.0,4.9,112.0,6.1,'11111222,11111222,11111222' 
LOOP,urn:ioos:station:wmo:lopl1:1,2013-10-02T22:48:00Z,28.8850,-90.0250,10.0,5.2,109.0,5.9,'11111222,11111222,11111222' 
LOOP,urn:ioos:station:wmo:lopl1:1,2013-10-02T23:03:00Z,28.8850,-90.0250,10.0,5.3,113.0,5.8,'11111222,11111222,11111222' 
LOOP,urn:ioos:station:wmo:lopl1:1,2013-10-02T23:23:00Z,28.8850,-90.0250,10.0,5.0,101.0,5.7,'11111222,11111222,11111222' 
LOOP,urn:ioos:station:wmo:lopl1:1,2013-10-02T23:38:00Z,28.8850,-90.0250,10.0,5.5,100.0,6.3,'11111222,11111222,11111222' 
LOOP,urn:ioos:station:wmo:lopl1:1,2013-10-02T23:53:00Z,28.8850,-90.0250,10.0,5.6,88.0,6.4,'11111222,11111222,11111222' 
LOOP,urn:ioos:station:wmo:lopl1:1,2013-10-03T00:08:00Z,28.8850,-90.0250,10.0,5.6,86.0,6.2,'11111222,11111222,11111222' 
LOOP,urn:ioos:station:wmo:lopl1:1,2013-10-03T00:23:00Z,28.8850,-90.0250,10.0,5.3,84.0,5.9,'11111222,11111222,11111222' 
LOOP,urn:ioos:station:wmo:lopl1:1,2013-10-03T00:38:00Z,28.8850,-90.0250,10.0,5.7,77.0,6.5,'11111222,11111222,11111222' 
LOOP,urn:ioos:station:wmo:lopl1:1,2013-10-03T00:53:00Z,28.8850,-90.0250,10.0,7.0,74.0,8.1,'11111222,11111222,11111222' 
LOOP,urn:ioos:station:wmo:lopl1:1,2013-10-03T01:08:00Z,28.8850,-90.0250,10.0,6.6,78.0,7.4,'11111222,11111222,11111222' 
LOOP,urn:ioos:station:wmo:lopl1:1,2013-10-03T01:23:00Z,28.8850,-90.0250,10.0,7.1,82.0,9.1,'11111222,11111222,11111222' 
LOOP,urn:ioos:station:wmo:lopl1:1,2013-10-03T01:38:00Z,28.8850,-90.0250,10.0,8.0,93.0,8.9,'11111222,11111222,11111222' 
LOOP,urn:ioos:station:wmo:lopl1:1,2013-10-03T01:53:00Z,28.8850,-90.0250,10.0,9.0,76.0,10.1,'11111222,11111222,11111222' 